Climatologie pour Saint-Brevin les Pins
 
Jour • Résumé pour juillet 19, 2018 Système :  Métrique    Anglais   Mixte
« - 1 jour
+ 1 jour »
Jour Semaine Mois Année Personnalisé
  Actuellement : Maximum : Minimum : Moyenne :
Température sous abri : -7.9 °C -17.8 °C -9.2 °C -8.7 °C
Point de rosée : -9.8 °C -17.8 °C -10.6 °C -10.2 °C
Humidité : 80 % Humidity % 79 % 84 %
Vitesse du vent : 0 km/h 0 km/h 0 km/h 1.3 km/h
Rafale : 10.3 km/h 0 km/h - -
Direction :Calm - - East
Pression : 34418.7 hPa 0 hPa 34395 hPa -
Précipitations : 0 mm      
Historical Graphs
 
 
Tableau de données pour juillet 19, 2018
Heure Tempé Pt rosée Pression Vent Vitesse Rafale Humidité Taux pluie (/hr) Soleil
-17.8 °C -17.8 °C 0 hPa Calm     Humidity % 0 mm SolarRadiationWatts/m^2 W/m2 Conditions
00:00 -8.5 °C -9.6 °C 34445.8 hPa Calm     88 % 0 mm 0.00 W/m2
00:05 -8.5 °C -9.6 °C 34445.8 hPa Calm   5.1 km/h 89 % 0 mm 0.00 W/m2
00:10 -8.6 °C -9.7 °C 34445.8 hPa Calm   5.1 km/h 88 % 0 mm 0.00 W/m2
00:15 -8.6 °C -9.6 °C 34442.4 hPa Calm   5.1 km/h 89 % 0 mm 0.00 W/m2
00:20 -8.6 °C -9.6 °C 34442.4 hPa North 2.6 km/h 5.1 km/h 89 % 0 mm 0.00 W/m2
00:25 -8.5 °C -9.6 °C 34445.8 hPa Calm   12.9 km/h 89 % 0 mm 0.00 W/m2
00:30 -8.4 °C -9.4 °C 34445.8 hPa Calm   15.6 km/h 89 % 0 mm 0.00 W/m2
00:35 -8.2 °C -9.3 °C 34445.8 hPa Calm   15.6 km/h 88 % 0 mm 0.00 W/m2
00:40 -8.2 °C -9.4 °C 34442.4 hPa Calm   10.3 km/h 86 % 0 mm 0.00 W/m2
00:45 -8.1 °C -9.6 °C 34445.8 hPa Calm   2.6 km/h 85 % 0 mm 0.00 W/m2
00:50 -8.2 °C -9.6 °C 34442.4 hPa Calm   2.6 km/h 85 % 0 mm 0.00 W/m2
00:55 -8.3 °C -9.6 °C 34439 hPa Calm   15.6 km/h 86 % 0 mm 0.00 W/m2
01:00 -8.2 °C -9.6 °C 34439 hPa Calm   15.6 km/h 86 % 0 mm 0.00 W/m2
01:05 -8.2 °C -9.6 °C 34442.4 hPa Calm     85 % 0 mm 0.00 W/m2
01:10 -8.2 °C -9.7 °C 34442.4 hPa Calm     85 % 0 mm 0.00 W/m2
01:15 -8.2 °C -9.6 °C 34442.4 hPa Calm   7.7 km/h 85 % 0 mm 0.00 W/m2
01:20 -8.3 °C -9.7 °C 34439 hPa Calm   15.6 km/h 85 % 0 mm 0.00 W/m2
01:25 -8.4 °C -9.7 °C 34442.4 hPa North 2.6 km/h 15.6 km/h 86 % 0 mm 0.00 W/m2
01:30 -8.3 °C -9.7 °C 34439 hPa Calm   15.6 km/h 86 % 0 mm 0.00 W/m2
01:35 -8.3 °C -9.7 °C 34442.4 hPa Calm   10.3 km/h 85 % 0 mm 0.00 W/m2
01:40 -8.3 °C -9.7 °C 34435.6 hPa Calm   10.3 km/h 85 % 0 mm 0.00 W/m2
01:45 -8.4 °C -9.8 °C 34435.6 hPa Calm   18.2 km/h 85 % 0 mm 0.00 W/m2
01:50 -8.4 °C -9.8 °C 34435.6 hPa Calm   18.2 km/h 85 % 0 mm 0.00 W/m2
01:55 -8.4 °C -9.8 °C 34435.6 hPa Calm   18.2 km/h 85 % 0 mm 0.00 W/m2
02:00 -8.4 °C -9.9 °C 34435.6 hPa Calm   23.3 km/h 84 % 0 mm 0.00 W/m2
02:05 -8.4 °C -9.9 °C 34435.6 hPa Calm   23.3 km/h 85 % 0 mm 0.00 W/m2
02:10 -8.4 °C -9.9 °C 34432.2 hPa Calm   20.8 km/h 85 % 0 mm 0.00 W/m2
02:15 -8.5 °C -9.9 °C 34428.8 hPa Calm   20.8 km/h 85 % 0 mm 0.00 W/m2
02:20 -8.5 °C -9.9 °C 34428.8 hPa Calm   18.2 km/h 85 % 0 mm 0.00 W/m2
02:25 -8.5 °C -10 °C 34425.5 hPa North 5.1 km/h 18.2 km/h 84 % 0 mm 0.00 W/m2
02:30 -8.5 °C -9.9 °C 34425.5 hPa Calm   15.6 km/h 85 % 0 mm 0.00 W/m2
02:35 -8.5 °C -10 °C 34422.1 hPa North 7.7 km/h 15.6 km/h 84 % 0 mm 0.00 W/m2
02:40 -8.4 °C -9.9 °C 34422.1 hPa NE 10.3 km/h 15.6 km/h 84 % 0 mm 0.00 W/m2
02:45 -8.4 °C -9.9 °C 34418.7 hPa NE 15.6 km/h 15.6 km/h 84 % 0 mm 0.00 W/m2
02:50 -8.5 °C -10.1 °C 34418.7 hPa Calm   18.2 km/h 83 % 0 mm 0.00 W/m2
02:55 -8.5 °C -10.1 °C 34418.7 hPa NE 7.7 km/h 18.2 km/h 84 % 0 mm 0.00 W/m2
03:00 -8.6 °C -10.1 °C 34415.3 hPa Calm   12.9 km/h 84 % 0 mm 0.00 W/m2
03:05 -8.6 °C -10.1 °C 34418.7 hPa Calm   12.9 km/h 84 % 0 mm 0.00 W/m2
03:10 -8.6 °C -10.1 °C 34418.7 hPa Calm   12.9 km/h 84 % 0 mm 0.00 W/m2
03:15 -8.6 °C -10.1 °C 34418.7 hPa Calm   12.9 km/h 84 % 0 mm 0.00 W/m2
03:20 -8.6 °C -10.1 °C 34415.3 hPa Calm   10.3 km/h 84 % 0 mm 0.00 W/m2
03:25 -8.6 °C -10.1 °C 34418.7 hPa Calm   10.3 km/h 84 % 0 mm 0.00 W/m2
03:30 -8.6 °C -10.1 °C 34415.3 hPa Calm   10.3 km/h 84 % 0 mm 0.00 W/m2
03:35 -8.6 °C -10.1 °C 34415.3 hPa Calm   10.3 km/h 84 % 0 mm 0.00 W/m2
03:40 -8.7 °C -10.1 °C 34415.3 hPa Calm   10.3 km/h 85 % 0 mm 0.00 W/m2
03:45 -8.7 °C -10.1 °C 34411.9 hPa NNE 7.7 km/h 10.3 km/h 85 % 0 mm 0.00 W/m2
03:50 -8.7 °C -10.1 °C 34415.3 hPa Calm   7.7 km/h 85 % 0 mm 0.00 W/m2
03:55 -8.8 °C -10.2 °C 34411.9 hPa Calm   7.7 km/h 85 % 0 mm 0.00 W/m2
04:00 -8.8 °C -10.2 °C 34411.9 hPa Calm   5.1 km/h 85 % 0 mm 0.00 W/m2
04:05 -8.8 °C -10.2 °C 34415.3 hPa Calm   20.8 km/h 85 % 0 mm 0.00 W/m2
04:10 -8.8 °C -10.2 °C 34415.3 hPa Calm   20.8 km/h 85 % 0 mm 0.00 W/m2
04:15 -8.8 °C -10.2 °C 34415.3 hPa Calm   12.9 km/h 85 % 0 mm 0.00 W/m2
04:20 -8.8 °C -10.2 °C 34418.7 hPa Calm   7.7 km/h 85 % 0 mm 0.00 W/m2
04:25 -8.8 °C -10.3 °C 34415.3 hPa Calm   7.7 km/h 84 % 0 mm 0.00 W/m2
04:30 -8.9 °C -10.3 °C 34411.9 hPa Calm   5.1 km/h 85 % 0 mm 0.00 W/m2
04:35 -9.1 °C -10.4 °C 34408.5 hPa Calm   7.7 km/h 86 % 0 mm 0.00 W/m2
04:40 -9.1 °C -10.4 °C 34408.5 hPa Calm   10.3 km/h 86 % 0 mm 0.00 W/m2
04:45 -9.1 °C -10.4 °C 34405.1 hPa Calm   10.3 km/h 86 % 0 mm 0.00 W/m2
04:50 -9.1 °C -10.3 °C 34405.1 hPa Calm   7.7 km/h 86 % 0 mm 0.00 W/m2
04:55 -9 °C -10.3 °C 34405.1 hPa Calm   7.7 km/h 86 % 0 mm 0.00 W/m2
05:00 -8.9 °C -10.3 °C 34405.1 hPa Calm   7.7 km/h 85 % 0 mm 0.00 W/m2
05:05 -8.9 °C -10.3 °C 34405.1 hPa Calm   10.3 km/h 85 % 0 mm 0.00 W/m2
05:10 -8.9 °C -10.3 °C 34398.4 hPa Calm   10.3 km/h 85 % 0 mm 0.00 W/m2
05:15 -8.9 °C -10.3 °C 34401.8 hPa Calm   7.7 km/h 85 % 0 mm 0.00 W/m2
05:20 -8.8 °C -10.3 °C 34398.4 hPa Calm   5.1 km/h 85 % 0 mm 0.00 W/m2
05:25 -8.8 °C -10.3 °C 34398.4 hPa Calm   5.1 km/h 84 % 0 mm 0.00 W/m2
05:30 -8.8 °C -10.3 °C 34398.4 hPa Calm   10.3 km/h 84 % 0 mm 0.00 W/m2
05:35 -8.8 °C -10.3 °C 34398.4 hPa Calm   10.3 km/h 84 % 0 mm 0.00 W/m2
05:40 -8.9 °C -10.3 °C 34395 hPa Calm     85 % 0 mm 0.00 W/m2
05:45 -8.9 °C -10.3 °C 34398.4 hPa Calm   2.6 km/h 85 % 0 mm 0.00 W/m2
05:50 -8.9 °C -10.4 °C 34398.4 hPa Calm   5.1 km/h 84 % 0 mm 0.00 W/m2
05:55 -8.9 °C -10.4 °C 34398.4 hPa Calm   7.7 km/h 84 % 0 mm 0.00 W/m2
06:00 -8.9 °C -10.4 °C 34395 hPa Calm   15.6 km/h 84 % 0 mm 0.00 W/m2
06:05 -9 °C -10.5 °C 34395 hPa Calm   15.6 km/h 84 % 0 mm 0.00 W/m2
06:10 -9.1 °C -10.4 °C 34395 hPa Calm   2.6 km/h 85 % 0 mm 0.00 W/m2
06:15 -9.1 °C -10.4 °C 34398.4 hPa Calm   7.7 km/h 85 % 0 mm 0.00 W/m2
06:20 -9 °C -10.5 °C 34398.4 hPa East 5.1 km/h 7.7 km/h 84 % 0 mm 0.00 W/m2
06:25 -9 °C -10.5 °C 34398.4 hPa Calm   5.1 km/h 84 % 0 mm 0.00 W/m2
06:30 -9 °C -10.5 °C 34401.8 hPa Calm   5.1 km/h 84 % 0 mm 0.00 W/m2
06:35 -9.1 °C -10.6 °C 34401.8 hPa Calm   7.7 km/h 84 % 0 mm 0.00 W/m2
06:40 -9 °C -10.5 °C 34405.1 hPa Calm   7.7 km/h 84 % 0 mm 5.00 W/m2
06:45 -9 °C -10.5 °C 34401.8 hPa East 5.1 km/h 7.7 km/h 84 % 0 mm 7.00 W/m2
06:50 -9 °C -10.5 °C 34398.4 hPa East 5.1 km/h 7.7 km/h 84 % 0 mm 11.00 W/m2
06:55 -9 °C -10.5 °C 34398.4 hPa Calm   7.7 km/h 84 % 0 mm 12.00 W/m2
07:00 -9 °C -10.5 °C 34401.8 hPa Calm   7.7 km/h 84 % 0 mm 18.00 W/m2
07:05 -9.1 °C -10.4 °C 34405.1 hPa Calm     85 % 0 mm 25.00 W/m2
07:10 -9.2 °C -10.6 °C 34405.1 hPa Calm   5.1 km/h 85 % 0 mm 30.00 W/m2
07:15 -9.1 °C -10.5 °C 34401.8 hPa ENE 5.1 km/h 7.7 km/h 85 % 0 mm 37.00 W/m2
07:20 -9.1 °C -10.4 °C 34401.8 hPa East 7.7 km/h 20.8 km/h 85 % 0 mm 42.00 W/m2
07:25 -8.9 °C -10.3 °C 34401.8 hPa Calm   20.8 km/h 85 % 0 mm 40.00 W/m2
07:30 -8.9 °C -10.4 °C 34401.8 hPa Calm   7.7 km/h 84 % 0 mm 39.00 W/m2
07:35 -8.8 °C -10.3 °C 34401.8 hPa Calm   10.3 km/h 84 % 0 mm 37.00 W/m2
07:40 -8.8 °C -10.3 °C 34405.1 hPa Calm   10.3 km/h 84 % 0 mm 39.00 W/m2
07:45 -8.9 °C -10.3 °C 34405.1 hPa Calm   7.7 km/h 85 % 0 mm 46.00 W/m2
07:50 -8.9 °C -10.3 °C 34411.9 hPa Calm   7.7 km/h 85 % 0 mm 54.00 W/m2
07:55 -8.9 °C -10.3 °C 34408.5 hPa Calm   5.1 km/h 85 % 0 mm 58.00 W/m2
08:00 -8.8 °C -10.2 °C 34411.9 hPa Calm   10.3 km/h 85 % 0 mm 70.00 W/m2
08:05 -8.7 °C -10.1 °C 34415.3 hPa Calm   10.3 km/h 85 % 0 mm 77.00 W/m2
08:10 -8.7 °C -10.1 °C 34411.9 hPa Calm   5.1 km/h 85 % 0 mm 121.00 W/m2
08:15 -8.6 °C -10 °C 34415.3 hPa Calm   12.9 km/h 85 % 0 mm 209.00 W/m2
08:20 -8.4 °C -9.9 °C 34415.3 hPa NE 7.7 km/h 18.2 km/h 85 % 0 mm 127.00 W/m2
08:25 -8.4 °C -10.1 °C 34418.7 hPa Calm   18.2 km/h 83 % 0 mm 216.00 W/m2
08:30 -8.4 °C -10.1 °C 34418.7 hPa NE 15.6 km/h 18.2 km/h 82 % 0 mm 171.00 W/m2
08:35 -8.3 °C -9.9 °C 34418.7 hPa Calm   18.2 km/h 83 % 0 mm 246.00 W/m2
08:40 -8.2 °C -9.9 °C 34418.7 hPa NE 10.3 km/h 20.8 km/h 82 % 0 mm 255.00 W/m2
08:45 -8.1 °C -9.9 °C 34422.1 hPa NE 2.6 km/h 20.8 km/h 81 % 0 mm 283.00 W/m2
08:50 -8 °C -9.8 °C 34422.1 hPa North 12.9 km/h 18.2 km/h 81 % 0 mm 267.00 W/m2
08:55 -7.9 °C -10 °C 34422.1 hPa NNE 10.3 km/h 23.3 km/h 79 % 0 mm 130.00 W/m2
09:00 -7.9 °C -9.8 °C 34418.7 hPa Calm   23.3 km/h 81 % 0 mm 264.00 W/m2
09:05 -7.9 °C -9.8 °C 34418.7 hPa Calm   10.3 km/h 80 % 0 mm 301.00 W/m2
Avec l'autorisation de Weather Underground - 1.25 mb